Вернуться в каталог

ONEWEB-0275

АктивенСвязьPO
NORAD 48993·PAYLOAD·🇬🇧 United Kingdom

Запущен Jul 1, 2021 с Vostochny Cosmodrome

Loading…

Ближайшие Пролёты (ближайшие 24 часа)

TLE

СвежийSource: CelesTrak SupGP

Эпоха: Sep 14, 2026, 20:02 UTC

1 48993C 21060AC  26257.83490000  .00000392  00000+0  10276-2 0  2576
2 48993  87.9153 210.9762 0002832  89.2214 294.8564 13.16596410    11

Отслеживайте ONEWEB-0275 в реальном времени с AllMySat

Download on the App Store